Tracking 29059 objects as of 19-Jun-2024
HD Live streaming from Space Station
objects crossing your sky now

SL-14 DEB

Track SL-14 DEB now!
10-day predictions


NORAD ID: 35400
Int'l Code: 1991-068AW
Perigee: 1,179.2 km
Apogee: 1,471.5 km
Inclination: 82.9 °
Period: 112.0 minutes
Semi major axis: 7696 km
RCS: 0.0033 m2 (small)
Launch date: September 28, 1991
Source: Commonwealth of Independent States (former USSR) (CIS)
Launch site: PLESETSK MISSILE AND SPACE COMPLEX (PKMTR)

Note: This is SATELLITE DEBRIS
Your satellite tracking list
Your tracking list is empty




NASA's NSSDC Master Catalog

Two Line Element Set (TLE):
1 35400U 91068AW  24170.65321652  .00000045  00000-0  13069-3 0  9991
2 35400  82.9212 124.4068 0189851 323.3361 212.0784 12.85810710214099
Source of the keplerian elements: AFSPC